Overview Statistics Trail Chart Weather Telemetry Raw packets
 

This is the latest recevied weather packets stored in our database for station/object WW5JC. If no packets are shown the sender has not sent any weather packets the latest 10 day(s).

<< 33 34 35 36 37 38 39 >>
Time Temp. Humidity Pressure Rain* Wind** Luminosity Snow
1788401769 29.44° C 67% 1015.9 hPa 0 mm - 0 W/m² -
1788401468 30° C 67% 1015.7 hPa 0 mm - 0 W/m² -
1788401164 30° C 67% 1015.8 hPa 0 mm - 0 W/m² -
1788400864 30° C 66% 1015.4 hPa 0 mm - 0 W/m² -
1788400559 30° C 66% 1015.5 hPa 0 mm - 0 W/m² -
1788400254 30° C 65% 1015.5 hPa 0 mm - 0 W/m² -
1788399949 30° C 65% 1015.2 hPa 0 mm - 0 W/m² -
1788399644 30.56° C 64% 1015.3 hPa 0 mm - 0 W/m² -
1788399343 30° C 64% 1015.1 hPa 0 mm - 0 W/m² -
1788399038 30.56° C 63% 1015.3 hPa 0 mm - 0 W/m² -
1788398732 30.56° C 63% 1015 hPa 0 mm - 0 W/m² -
1788398430 30.56° C 62% 1015 hPa 0 mm - 0 W/m² -
1788398125 30.56° C 61% 1015.1 hPa 0 mm - 0 W/m² -
1788397820 31.11° C 61% 1015.1 hPa 0 mm - 0 W/m² -
1788397515 31.11° C 60% 1015 hPa 0 mm - 0 W/m² -
1788397214 31.11° C 61% 1015.1 hPa 0 mm - 0 W/m² -
1788396914 31.11° C 61% 1015 hPa 0 mm - 1 W/m² -
1788396610 31.11° C 59% 1015.1 hPa 0 mm - 2 W/m² -
1788396304 31.67° C 59% 1015.1 hPa 0 mm - 4 W/m² -
1788396000 31.67° C 58% 1014.9 hPa 0 mm - 6 W/m² -
1788395695 31.67° C 57% 1014.9 hPa 0 mm - 9 W/m² -
1788395390 32.22° C 57% 1014.9 hPa 0 mm - 11 W/m² -
1788395090 32.22° C 57% 1014.9 hPa 0 mm - 14 W/m² -
1788394789 32.22° C 57% 1015.1 hPa 0 mm - 17 W/m² -
1788394506 32.22° C 57% 1015 hPa 0 mm - 19 W/m² -

* Rain latest hour (hover to see other rain measurements)
** Current wind speed in m/s (hover to see current wind gust speed)